This is the latest recevied weather packets stored in our database for station/object KC8SWY-15. If no packets are shown the sender has not sent any weather packets the latest 10 day(s).
| Time | Temp. | Humidity | Pressure | Rain* | Wind** | Luminosity | Snow |
|---|---|---|---|---|---|---|---|
| 1788385536 | 33.33° C | 58% | 1011 hPa | 0 mm | - | - | - |
| 1788385236 | 33.33° C | 58% | 1011 hPa | 0 mm | - | - | - |
| 1788384936 | 33.33° C | 57% | 1011.1 hPa | 0 mm | - | - | - |
| 1788384636 | 33.33° C | 57% | 1011.1 hPa | 0 mm | - | - | - |
| 1788384336 | 33.33° C | 57% | 1011.2 hPa | 0 mm | - | - | - |
| 1788384036 | 33.33° C | 56% | 1011.2 hPa | 0 mm | - | - | - |
| 1788383736 | 33.33° C | 55% | 1011.2 hPa | 0 mm | - | - | - |
| 1788383436 | 33.89° C | 57% | 1011.1 hPa | 0 mm | - | - | - |
| 1788383136 | 33.33° C | 55% | 1011.3 hPa | 0 mm | - | - | - |
| 1788382836 | 33.33° C | 54% | 1011.4 hPa | 0 mm | - | - | - |
| 1788382536 | 33.33° C | 55% | 1011.3 hPa | 0 mm | - | - | - |
| 1788382236 | 33.33° C | 54% | 1011.3 hPa | 0 mm | - | - | - |
| 1788381936 | 33.33° C | 58% | 1011.4 hPa | 0 mm | - | - | - |
| 1788381636 | 32.78° C | 56% | 1011.5 hPa | 0 mm | - | - | - |
| 1788381336 | 32.78° C | 59% | 1011.5 hPa | 0 mm | - | - | - |
| 1788381036 | 32.78° C | 58% | 1011.7 hPa | 0 mm | - | - | - |
| 1788380736 | 32.78° C | 56% | 1011.7 hPa | 0 mm | - | - | - |
| 1788380436 | 33.33° C | 55% | 1011.8 hPa | 0 mm | - | - | - |
| 1788380136 | 33.33° C | 54% | 1011.8 hPa | 0 mm | - | - | - |
| 1788379836 | 33.33° C | 56% | 1012 hPa | 0 mm | - | - | - |
| 1788379536 | 33.33° C | 57% | 1012 hPa | 0 mm | - | - | - |
| 1788379269 | 33.33° C | 58% | 1012 hPa | 0 mm | - | - | - |
| 1788379236 | 33.33° C | 58% | 1012 hPa | 0 mm | - | - | - |
| 1788378936 | 32.78° C | 57% | 1012.1 hPa | 0 mm | - | - | - |
| 1788378636 | 32.78° C | 56% | 1012.3 hPa | 0 mm | - | - | - |
* Rain latest hour (hover to see other rain measurements)
** Current wind speed in m/s (hover to see current wind gust speed)